Simultaneous Nadir Overpasses (SNOs) Predictions

Prediction of SNOs between NOAA-20 and NOAA-19 Satellite Orbit:

Table of predicted SNOs for the next 14.0 days since TLE Epoch: 1/23/2021
Index Date (NOAA-20) Time (NOAA-20) Lat,Lon (NOAA-20) SZA (NOAA-20 ) Date (NOAA-19) Time (NOAA-19) Lat,Lon (NOAA-19) SZA (NOAA-19 ) Distance(km) Time Diff (sec)
1 01/23/2021 08:29:33 78.67, 24.08 99.55 01/23/2021 08:28:22 78.69, 23.99 99.61 3.22 71
2 01/23/2021 09:20:18 -78.69,-168.74 80.43 01/23/2021 09:19:17 -78.70,-168.65 80.40 2.30 61
3 01/23/2021 10:11:04 78.71, -1.55 99.60 01/23/2021 10:10:22 78.70, -1.40 99.60 3.40 42
4 01/23/2021 11:01:48 -78.69, 165.87 80.44 01/23/2021 11:01:17 -78.72, 165.96 80.42 3.35 31
5 01/23/2021 11:52:34 78.71, -26.95 99.59 01/23/2021 11:52:23 78.69, -27.03 99.58 3.41 11
6 01/23/2021 12:43:18 -78.69, 140.47 80.45 01/23/2021 12:43:18 -78.70, 140.32 80.44 3.31 0
7 01/23/2021 13:34:04 78.71, -52.35 99.58 01/23/2021 13:34:23 78.70, -52.42 99.56 2.33 19
8 01/23/2021 14:24:49 -78.73, 114.84 80.41 01/23/2021 14:25:18 -78.71, 114.93 80.45 3.30 29
9 01/23/2021 15:15:33 78.72, -77.74 99.56 01/23/2021 15:16:22 78.72, -77.81 99.55 1.57 49
10 01/23/2021 16:06:18 -78.74, 89.44 80.42 01/23/2021 16:07:17 -78.73, 89.54 80.46 2.54 59
11 01/23/2021 16:57:09 78.94,-104.59 99.89 01/23/2021 16:58:17 78.90,-101.95 99.56 56.77 68



Historial Predications of SNOs between NOAA-20 and NOAA-19
